Weather History for Defiance, OH

Change the Weather History Date:

Saturday, December 25, 2010

  Actual Average Record
Temperature  
Mean Temperature 24 °F -  
Max Temperature 28 °F 31 °F 60 °F (1940)
Min Temperature 21 °F 15 °F -18 °F (1983)
Degree Days  
Heating Degree Days 40    
Moisture  
Dew Point 20 °F    
Average Humidity 76    
Maximum Humidity 82    
Minimum Humidity 69    
Precipitation  
Precipitation 0.00 in - - ()
Sea Level Pressure  
Sea Level Pressure 30.17 in    
Wind  
Wind Speed 5 mph (North)    
Max Wind Speed 12 mph    
Max Gust Speed -    
Visibility 7 miles    
Events Snow    
Averages and records for this station are not official NWS values.
T = Trace of Precipitation, MM = Missing Value Source: NWS Daily Summary

Daily Weather History Graph

Daily Weather History Graph

Search for Another Location

Airport:

Trip Planner

Search our weather history database for the weather conditions in past years. The results will help you decide how hot, cold, wet, or windy it might be!

Date:

Astronomy

Dec. 25, 2010 Rise Set
Actual Time 8:02 AM EST 5:13 PM EST
Civil Twilight 7:30 AM EST 5:45 PM EST
Nautical Twilight 6:55 AM EST 6:19 PM EST
Astronomical Twilight 6:22 AM EST 6:53 PM EST
Moon 10:34 PM EST (12/25) 10:49 AM EST (12/25)
Length of Visible Light 10h 14m
Length of Day
9h 11m
Waning Gibbous, 77% of the Moon is Illuminated
Dec 25
Waning Gibbous
Dec 27
Last Quarter
Jan 4
New
Jan 12
First Quarter
Jan 19
Full

Hourly Weather History & Observations

Time (EST) Temp. Windchill Dew Point Humidity Pressure Visibility Wind Dir Wind Speed Gust Speed Precip Events Conditions
12:23 AM 26.6 °F - 19.4 °F 74% 30.20 in 10.0 mi Calm Calm - N/A   Overcast
12:53 AM 26.1 °F 21.9 °F 18.0 °F 71% 30.22 in 10.0 mi NE 3.5 mph - N/A   Overcast
1:53 AM 25.0 °F - 19.0 °F 78% 30.22 in 10.0 mi Calm Calm - N/A   Overcast
2:53 AM 25.0 °F 20.7 °F 18.0 °F 75% 30.22 in 10.0 mi North 3.5 mph - N/A   Overcast
3:37 AM 24.8 °F 20.5 °F 17.6 °F 74% 30.19 in 10.0 mi North 3.5 mph - N/A   Overcast
3:53 AM 25.0 °F 20.7 °F 18.0 °F 75% 30.22 in 10.0 mi North 3.5 mph - N/A   Overcast
4:53 AM 24.1 °F 18.2 °F 18.0 °F 77% 30.20 in 10.0 mi North 4.6 mph - N/A   Overcast
5:53 AM 24.1 °F 19.7 °F 18.0 °F 77% 30.20 in 10.0 mi North 3.5 mph - N/A   Mostly Cloudy
6:53 AM 21.9 °F 17.2 °F 17.1 °F 82% 30.20 in 10.0 mi North 3.5 mph - N/A   Overcast
7:53 AM 23.0 °F - 18.0 °F 81% 30.20 in 10.0 mi Calm Calm - N/A   Overcast
8:53 AM 23.0 °F 18.4 °F 18.0 °F 81% 30.19 in 10.0 mi North 3.5 mph - N/A   Overcast
9:53 AM 25.0 °F 18.1 °F 19.0 °F 78% 30.21 in 10.0 mi North 5.8 mph - N/A   Overcast
10:53 AM 25.0 °F 17.1 °F 18.0 °F 75% 30.21 in 10.0 mi North 6.9 mph - N/A   Overcast
11:53 AM 27.0 °F 17.3 °F 19.9 °F 75% 30.19 in 6.0 mi NNW 10.4 mph - N/A   Haze
12:23 PM 26.6 °F 16.8 °F 19.4 °F 74% 30.14 in 6.0 mi North 10.4 mph - N/A   Haze
12:53 PM 27.0 °F 18.0 °F 21.0 °F 78% 30.17 in 3.0 mi NNW 9.2 mph - 0.00 in Snow Light Snow
1:37 PM 28.4 °F 20.4 °F 21.2 °F 74% 30.13 in 2.0 mi North 8.1 mph - 0.00 in Snow Light Snow
1:46 PM 28.4 °F 22.2 °F 21.2 °F 74% 30.13 in 3.0 mi North 5.8 mph - 0.00 in Snow Light Snow
1:53 PM 28.0 °F 20.0 °F 21.9 °F 78% 30.16 in 3.0 mi NNW 8.1 mph - 0.00 in Snow Light Snow
2:11 PM 28.4 °F 20.4 °F 21.2 °F 74% 30.13 in 2.5 mi NNW 8.1 mph - 0.00 in Snow Light Snow
2:21 PM 28.4 °F 22.2 °F 21.2 °F 74% 30.13 in 1.8 mi North 5.8 mph - 0.00 in Snow Light Snow
2:37 PM 28.4 °F 22.2 °F 21.2 °F 74% 30.13 in 2.5 mi NNE 5.8 mph - 0.00 in Snow Light Snow
2:43 PM 28.4 °F 24.6 °F 21.2 °F 74% 30.13 in 1.8 mi NNE 3.5 mph - 0.00 in Snow Light Snow
2:53 PM 28.9 °F 21.9 °F 21.9 °F 75% 30.16 in 1.8 mi North 6.9 mph - 0.00 in Snow Light Snow
3:00 PM 28.4 °F 21.2 °F 21.2 °F 74% 30.12 in 2.5 mi NNW 6.9 mph - 0.00 in Snow Light Snow
3:09 PM 28.4 °F 19.7 °F 21.2 °F 74% 30.12 in 4.0 mi NNE 9.2 mph - 0.00 in Snow Light Snow
3:33 PM 28.4 °F 20.4 °F 21.2 °F 74% 30.12 in 10.0 mi North 8.1 mph - 0.00 in   Overcast
3:53 PM 28.9 °F 19.8 °F 21.0 °F 72% 30.15 in 10.0 mi North 10.4 mph - 0.00 in   Overcast
4:03 PM 28.4 °F 18.5 °F 19.4 °F 69% 30.13 in 10.0 mi North 11.5 mph - N/A   Overcast
4:53 PM 27.0 °F 20.5 °F 19.9 °F 75% 30.16 in 9.0 mi North 5.8 mph - N/A   Overcast
5:53 PM 27.0 °F 18.0 °F 19.0 °F 72% 30.17 in 10.0 mi North 9.2 mph - 0.00 in   Overcast
6:41 PM 26.6 °F 19.1 °F 19.4 °F 74% 30.14 in 2.5 mi North 6.9 mph - 0.00 in Snow Light Snow
6:47 PM 26.6 °F 19.1 °F 19.4 °F 74% 30.14 in 3.0 mi North 6.9 mph - 0.00 in Snow Light Snow
6:53 PM 26.1 °F 18.4 °F 19.9 °F 78% 30.18 in 5.0 mi North 6.9 mph - 0.00 in Snow Light Snow
7:53 PM 25.0 °F 15.5 °F 18.0 °F 75% 30.18 in 10.0 mi North 9.2 mph - 0.00 in   Overcast
8:53 PM 25.0 °F 16.3 °F 19.9 °F 81% 30.17 in 3.0 mi North 8.1 mph - 0.00 in Snow Light Snow
9:41 PM 24.8 °F 15.3 °F 19.4 °F 80% 30.14 in 4.0 mi North 9.2 mph - 0.00 in Snow Light Snow
9:53 PM 25.0 °F 14.8 °F 19.9 °F 81% 30.17 in 4.0 mi North 10.4 mph - 0.00 in Snow Light Snow
10:53 PM 25.0 °F 14.8 °F 19.9 °F 81% 30.17 in 7.0 mi North 10.4 mph - 0.00 in Snow Light Snow
11:53 PM 25.0 °F 14.2 °F 19.0 °F 78% 30.16 in 10.0 mi North 11.5 mph - 0.00 in   Overcast